Location: Newark
(33.6333°S, 78.8500°W)
Time: 03:29:33
(UTC+00:00)

Tiros 1 despin weight - All Passes

Search period start: 20 September 2019 00:00
Search period end: 30 September 2019 00:00
Orbit: 594 x 642 km, 48.2° (Epoch: 19 September)

Date Brightness Start Highest point End Pass type
(mag) Time Alt. Az. Time Alt. Az. Time Alt. Az.
20 Sep - 03:19:43 10° NNE 03:21:57 14° NE 03:24:12 10° E night (unlit)
20 Sep - 04:58:25 10° NW 05:02:59 85° SW 05:07:38 10° SE night (unlit)
20 Sep - 06:41:31 10° WSW 06:45:05 22° SSW 06:48:43 10° SSE night (unlit)
20 Sep - 08:25:47 10° SSW 08:28:05 13° S 08:30:23 10° SSE visible
20 Sep - 10:07:29 10° SSW 10:11:06 21° SSE 10:14:42 10° ESE visible
20 Sep - 11:48:31 10° SW 11:53:15 79° SE 11:57:59 10° NE daylight
20 Sep - 13:31:34 10° W 13:34:23 16° NW 13:37:12 10° NNW daylight
21 Sep - 03:34:19 10° NNW 03:38:15 29° NE 03:42:14 10° ESE night (unlit)
21 Sep - 05:15:18 10° WNW 05:19:40 44° SSW 05:24:08 10° SE night (unlit)
21 Sep - 06:59:17 10° SW 07:02:11 16° SSW 07:05:06 10° SSE visible
21 Sep - 08:42:45 10° SSW 08:45:19 14° S 08:47:52 10° SE visible
21 Sep - 10:23:50 10° SW 10:28:04 31° SSE 10:32:17 10° E visible
21 Sep - 12:05:13 10° WSW 12:09:49 51° NW 12:14:22 10° NNE daylight
22 Sep - 03:50:13 10° NW 03:54:41 64° NE 03:59:15 10° ESE night (unlit)
22 Sep - 05:32:38 10° W 05:36:32 27° SSW 05:40:30 10° SSE night (unlit)
22 Sep - 07:17:01 10° SW 07:19:22 14° S 07:21:46 10° SSE visible
22 Sep - 08:59:18 10° SSW 09:02:29 18° SSE 09:05:40 10° ESE visible
22 Sep - 10:40:14 10° SW 10:44:52 54° SE 10:49:30 10° ENE visible
22 Sep - 12:22:23 10° WSW 12:26:13 24° NW 12:30:01 10° N daylight
23 Sep - 02:26:55 10° N 02:30:05 19° NE 02:33:17 10° E night (unlit)
23 Sep - 04:06:47 10° WNW 04:11:16 64° SW 04:15:53 10° SE night (unlit)
23 Sep - 05:50:18 10° WSW 05:53:33 19° SSW 05:56:51 10° SSE night (unlit)
23 Sep - 07:34:19 10° SSW 07:36:37 13° S 07:38:56 10° SSE visible
23 Sep - 09:15:39 10° SSW 09:19:32 24° SSE 09:23:24 10° ESE visible
23 Sep - 10:56:46 10° SW 11:01:31 79° NW 11:06:13 10° NE daylight
23 Sep - 12:41:12 10° WNW 12:42:29 11° NW 12:43:47 10° NW daylight
24 Sep - 02:42:13 10° NNW 02:46:26 40° NE 02:50:43 10° ESE night (unlit)
24 Sep - 04:23:51 10° W 04:28:02 35° SSW 04:32:17 10° SE night (unlit)
24 Sep - 06:08:06 10° SW 06:10:41 15° S 06:13:19 10° SSE night (unlit)
24 Sep - 07:51:03 10° SSW 07:53:49 15° SSE 07:56:36 10° SE visible
24 Sep - 09:32:00 10° SW 09:36:25 39° SSE 09:40:50 10° E visible
24 Sep - 11:13:39 10° WSW 11:18:00 37° NW 11:22:20 10° NNE daylight
25 Sep - 01:20:25 10° NNE 01:21:58 12° NE 01:23:31 10° ENE night (unlit)
25 Sep - 02:58:25 10° NW 03:02:55 87° NE 03:07:32 10° SE night (unlit)
25 Sep - 04:41:21 10° WSW 04:44:58 22° SSW 04:48:38 10° SSE night (unlit)
25 Sep - 06:25:41 10° SSW 06:27:55 13° S 06:30:09 10° SSE night (unlit)
25 Sep - 08:07:29 10° SSW 08:10:56 20° SSE 08:14:25 10° ESE visible
25 Sep - 09:48:27 10° SW 09:53:09 71° SE 09:57:51 10° ENE visible
25 Sep - 11:31:11 10° W 11:34:21 18° NW 11:37:29 10° N daylight
26 Sep - 01:34:31 10° N 01:38:14 26° NE 01:42:00 10° ESE night (unlit)
26 Sep - 03:15:13 10° WNW 03:19:36 48° SSW 03:24:03 10° SE night (unlit)
26 Sep - 04:59:06 10° SW 05:02:02 16° SSW 05:04:59 10° SSE night (unlit)
26 Sep - 06:42:44 10° SSW 06:45:09 14° S 06:47:33 10° SE visible
26 Sep - 08:23:49 10° SW 08:27:56 29° SSE 08:32:03 10° E visible
26 Sep - 10:05:06 10° WSW 10:09:44 58° NW 10:14:21 10° NE visible
27 Sep - 01:50:16 10° NW 01:54:39 56° NE 01:59:07 10° ESE visible
27 Sep - 03:32:29 10° W 03:36:25 28° SSW 03:40:25 10° SE night (unlit)
27 Sep - 05:16:53 10° SW 05:19:12 14° S 05:21:34 10° SSE night (unlit)
27 Sep - 06:59:18 10° SSW 07:02:19 17° SSE 07:05:21 10° SE visible
27 Sep - 08:40:12 10° SW 08:44:45 49° SSE 08:49:19 10° ENE visible
27 Sep - 10:22:11 10° WSW 10:26:09 27° NW 10:30:07 10° N visible
28 Sep - 00:27:16 10° N 00:30:05 17° NE 00:32:55 10° E visible
28 Sep - 02:06:45 10° WNW 02:11:12 70° SW 02:15:46 10° SE visible
28 Sep - 03:50:07 10° WSW 03:53:25 19° SSW 03:56:45 10° SSE night (unlit)
28 Sep - 05:34:16 10° SSW 05:36:27 13° S 05:38:38 10° SSE night (unlit)
28 Sep - 07:15:39 10° SSW 07:19:23 23° SSE 07:23:07 10° ESE visible
28 Sep - 08:56:42 10° SW 09:01:25 87° NW 09:06:07 10° NE visible
28 Sep - 10:40:27 10° WNW 10:42:27 13° NW 10:44:27 10° NNW daylight
29 Sep - 00:42:21 10° NNW 00:46:24 36° NE 00:50:33 10° ESE visible
29 Sep - 02:23:45 10° W 02:27:56 37° SSW 02:32:12 10° SE visible
29 Sep - 04:07:56 10° SW 04:10:32 15° S 04:13:09 10° SSE night (unlit)
29 Sep - 05:51:03 10° SSW 05:53:39 15° S 05:56:16 10° SE night (unlit)
29 Sep - 07:31:59 10° SW 07:36:18 35° SSE 07:40:37 10° E visible
29 Sep - 09:13:30 10° WSW 09:17:56 42° NW 09:22:20 10° NNE visible
